Webcams

EDPO Webcam Blick Richtung Osten (local time)

Webcam-2

Info zum Bild:

  • Blick zum Kloster Mariahilf, Entfernung ca. 3km
  • Blick zur Kirche St. Johannes, Entfernung ca. 1km
  • Blick zu den beiden Windrädern, Entfernung ca. 6km

EDPO Webcam Blick Richtung Westen (local time)

Webcam-1

Info zum Bild:

  • Blick zum Tyrolsberg, Entfernung ca. 3,5km

Dillberg Webcam Blick Richtung Osten zu EDPO (local time)

Webcam-1

Info zum Bild:

  • Blick vom Dillberg Richtung Neumarkt, Höhe 555ft über EDPO

Dillberg Webcam Blick Richtung Westen zum Sender (local time)

Webcam-1

Info zum Bild:

  • Blick vom Dillberg Sender, Höhe bis Spitze 1322ft über EDPO
  • 600m Entfernung / Sichtweite von CAM zum Dillberg Sender

Sparkasse Webcam Blick Richtung Nord-West über Neumarkt


Snapshot

Info zum Bild:

Nürnberger Fernsehturm (Rundum CAM)


METAR Informationen der nächstgelegenen Flughäfen


EDDN / Flughafen Nürnberg „Albrecht Dürer“

EDDN 251020Z 28014KT 240V320 9999 VCSH SCT025TCU 15/09 Q1029 NOSIG

ETIC / Fliegerhorst Grafenwöhr AAF

ETIC 250956Z AUTO 29010G19KT 9999 FEW036 BKN070 14/10 A3036 RMK AO2 RAE17DZB17E21 SLP282 P0000 T01410099 $

ETIH / Fliegerhorst Hohenfels AAF

ETIH 251003Z AUTO 29013G20KT 9999 -RA FEW038 SCT047 BKN060 BKN070 15/08 A3040 RMK AO2 WSHFT 0955 RAB0959 SLP295 $